REO Properties for Sale

 

Flagstar has real estate owned (REO) properties for sale in several states across the United States. Below are REO listings that include the listing agent for each property for sale. If you are interested in purchasing any of the below properties, please contact the listing agent.

 

To filter the property listing, simply click on the heading and the column will sort. The map link will open in a new window showing the REO property location on Google Maps.

 

Use our Branch Locator to find a Loan Center near you.

 

Property Address
City
State
Zip
List Date
List Price
Agent Name
Agent Phone
Map
2216 N County Line Rd Geneva OH 44041 9/11/2015 $11,500.00 Elizabeth Sill (440) 983-1071 map
101 Spearman Rd Buchanan GA 30113 1/30/2016 $45,000.00 Kelvin Smith (770) 330-5651 map
421 Sharnell Dr Houma LA 70364 3/2/2016 $104,900.00 Tim McCubbin (985) 790-1699 map
22478 Lanewood Rd Orange VA 22960 3/8/2016 $134,900.00 Lori Petrovitch (540) 273-3717 map
2694 W Main St Wappingers Falls NY 12590 3/8/2016 $119,000.00 Anita Sutherland (845) 416-4370 map
6287 Lapeer Rd Burton MI 48509 3/22/2016 $26,500.00 Ryan McFarlane (810) 577-7894 map
194 Bannister Hollow Rd Macks Creek MO 65786 4/1/2016 $127,500.00 Larry Cole (417) 531-1951 map
409 W Washington Blvd 2 Oak Park IL 60302 4/7/2016 $210,000.00 Kerry Delaney (773) 294-3331 map
18770 W Main St Galliano LA 70354 4/7/2016 $42,400.00 Tim McCubbin (985) 790-1699 map
1002 Stanton Dr Shelby NC 28150 4/26/2016 $79,900.00 Marlene Peeler (704) 472-0200 map
239 6th St Breckenridge MI 48615 4/26/2016 $33,250.00 Adam Vibber (989) 560-3069 map
8110 N US Highway 131 Manton MI 49663 4/27/2016 $49,900.00 Carlos A. Jean-Francois (989) 240-3130 map
261 Oak Springs Rd Rutherfordton NC 28139 4/29/2016 $49,900.00 joe walker (828) 429-1673 map
3606 Baker Dr Houma LA 70363 4/29/2016 $56,905.00 Tim McCubbin (985) 790-1699 map
3461 Palmer Rd Standish MI 48658 5/3/2016 $47,500.00 Mike Samborn (989) 239-3662 map
307 W 3rd St Scottville MI 49454 5/4/2016 $45,125.00 Lori Dickenson (231) 633-8417 map
16 Carriage Creek Dr Smithfield NC 27577 5/4/2016 $185,155.00 Beth Hines (919) 868-6316 map
146 Cow Path Rd Wyalusing PA 18853 5/26/2016 $95,000.00 Margo Chilson (607) 331-1679 map
12730 Hubbell St Detroit MI 48227 6/2/2016 $3,750.00 Paul Endres (313) 600-2121 map
6704 Rudderow Ave Pennsauken NJ 08109 6/3/2016 $84,900.00 Stephen Hoover (609) 519-5288 map
18580 Orleans St Highland Park MI 48203 6/17/2016 $7,700.00 Tracie Peltier (248) 495-1818 map
603 S Carolina St Saginaw MI 48602 6/24/2016 $12,500.00 James Mecomber (989) 737-7914 map
62635 36th Ave Bangor MI 49013 7/7/2016 $34,900.00 Greg Miller (269) 208-3568 map
929 W Marion St Elkhart IN 46516 7/13/2016 $23,500.00 Debbie Speth (574) 286-1671 map
2513 Sea Gull Ln Columbia SC 29203 7/13/2016 $23,500.00 Steve Crater (803) 269-9494 map
825 S 90 E Unit E302 Vernal UT 84078 7/15/2016 $85,500.00 Nathan Snow (435) 823-2138 map
1325 Fleenor Rd Mitchell IN 47446 7/15/2016 $29,900.00 Kelli Lucas (812) 797-4608 map
15 W Market St Dexter MO 63841 7/20/2016 $28,500.00 Melanie Miller (573) 624-0680 map
1815 Grandview Ave Portsmouth OH 45662 7/22/2016 $27,900.00 Sharon King (740) 357-0608 map
3944 Lakeside Pass Hephzibah GA 30815 7/25/2016 $200,000.00 Dale Testino (706) 306-2118 map
1245 Whitley Rd Middlesex NC 27557 7/28/2016 $94,900.00 Cory Barnett (919) 524-0545 map
824 S Nicholas Ave White Cloud MI 49349 7/28/2016 $49,900.00 Lisa Lightfoot (231) 250-1161 map
832 N Drake Ave Chicago IL 60651 7/29/2016 $109,900.00 Angelo Kalaras (773) 914-1645 map
212 Mary Caroline Spring Mount Holly NC 28120 8/4/2016 $209,900.00 Nancy Braun (704) 488-3109 map
3557 County Rd 143 Mahtowa MN 55707 8/10/2016 $74,900.00 Timothy Collelo (218) 591-7100 map
254 E Lincoln St Greenview IL 62642 8/10/2016 $42,900.00 Joe Tetzlaff (217) 556-1179 map
137 Fish Hatchery Rd Mossyrock WA 98564 8/10/2016 $219,900.00 Lillian Love (360) 789-3090 map
2193 Pleasant Ave Lake View NY 14085 8/10/2016 $59,900.00 Michael Wilson (716) 912-8770 map
35921 Cooley Rd Grafton OH 44044 8/10/2016 $47,500.00 Hanford Dixon (216) 376-2929 map
126 Northridge St Greensboro NC 27403 8/10/2016 $99,900.00 Tracey Shrouder (336) 965-7791 map
2333 N Charles St Saginaw MI 48602 8/10/2016 $84,500.00 Mike Samborn (989) 239-3662 map
294 Ridgeland Dr North Augusta SC 29841 8/10/2016 $39,500.00 Dale Testino (706) 306-2118 map
343 Saint Mary Blvd Biloxi MS 39531 8/10/2016 $59,900.00 Alain Harpin (228) 324-7187 map
7822 Brookfield Rd Charlotte MI 48813 8/15/2016 $24,900.00 Cindy Rase (517) 719-7120 map
1648 Venoy Rd Garden City MI 48135 8/15/2016 $56,500.00 Balaver Rose (248) 388-1366 map
353 Spruell Creek Dr Temple GA 30179 8/15/2016 $29,900.00 Deborah Hohenstein (404) 852-6770 map
33 Wyomissing Hills Blvd Reading PA 19609 8/15/2016 $169,900.00 Tod Slabik (610) 223-7578 map
5612 Pacesetter St North Las Vegas NV 89081 8/15/2016 $259,900.00 Jim Hastings (702) 326-4825 map
30 Daggett Rd Sand Lake MI 49343 8/16/2016 $99,900.00 Christopher Conflitti (616) 918-6430 map
5230 S 600 E Wolcottville IN 46795 8/17/2016 $130,000.00 Amy Cavender (574) 453-1872 map
5045 Anglewood Ct Kimball MI 48074 8/17/2016 $79,900.00 Linda DeForest (586) 306-5322 map
18501 W Toledo Rd Cement City MI 49233 8/17/2016 $29,900.00 Rhonda Miles (517) 796-6095 map
11531 N Old Number 7 Columbia MO 65202 8/19/2016 $79,900.00 Chelsie Darr (573) 826-0191 map
2444 Mcaffe Rd Decatur GA 30032 8/19/2016 $119,900.00 Norma Elkin (404) 683-4343 map
4893 Woodhurst Way Stone Mountain GA 30088 8/19/2016 $119,900.00 Nikki Crowder (678) 508-3878 map
8640 S Wilmot Rd Tucson AZ 85706 8/19/2016 $109,900.00 Geoffrey Adams (602) 740-8428 map
26543 Emma Ave Flat Rock MI 48134 8/19/2016 $67,500.00 Salina Evans (734) 430-4776 map
5806 Galloway Dr Oxon Hill MD 20745 8/19/2016 $139,900.00 JT Powell (202) 465-2357 map
113 Jeannette Dr Mulvane KS 67110 8/19/2016 $114,900.00 Dawn Wade (316) 806-1060 map
2680 Firestone Dr Clearwater FL 33761 8/25/2016 $252,900.00 Tim Shea (727) 457-3089 map
633 E Lincoln Ave Ionia MI 48846 8/26/2016 $47,200.00 Nick Dennison (616) 581-2713 map
19131 Braile Detroit MI 48219 8/26/2016 $6,900.00 Balaver Rose (248) 388-1366 map
3406 Prentice Ave Columbia SC 29205 8/26/2016 $129,900.00 Darrell Gibbs (864) 421-3378 map
1118 Bardwell Cir Waxahachie TX 75165 8/26/2016 $309,900.00 Sandy Wickware (469) 363-8501 map
40780 Vecchio Dr Clinton Township MI 48038 8/26/2016 $154,900.00 Linda DeForest (586) 306-5322 map
109 E Main St Leroy MI 49655 8/29/2016 $52,000.00 Shirley Schafer (231) 510-2702 map
6247 Brown Rd Parma MI 49269 8/29/2016 $79,900.00 Tim Jacobs (517) 937-5458 map
7975 Crespi Blvd Unit 1 Miami Beach FL 33141 8/29/2016 $139,900.00 Eddie Blanco (305) 609-8546 map
11425 Appleton Redford MI 48239 8/29/2016 $39,900.00 Balaver Rose (248) 388-1366 map
815 Lakeview Dr Marysville OH 43040 8/30/2016 $99,900.00 Lena Davis (740) 244-3092 map
8396 Dixie Hwy Ira MI 48023 8/30/2016 $89,900.00 Linda DeForest (586) 306-5322 map
718 Third North St Vicksburg MS 39183 8/31/2016 $8,900.00 Bette Warner (601) 218-1800 map
670 Victor Dr Saginaw MI 48609 8/31/2016 $54,900.00 Mike Samborn (989) 239-3662 map